Time,TemperatureF,DewpointF,PressureIn,WindDirection,WindDirectionDegrees,WindSpeedMPH,WindSpeedGustMPH,Humidity,HourlyPrecipIn,Conditions,Clouds,dailyrainin,SoftwareType,DateUTC
2013-01-07 00:00:00,45.9,26.3,31.31,NE,38,0.0,2.0,46,0.00,,,0.01,VWS V14.01,2013-01-07 08:00:00,
2013-01-07 00:01:00,45.8,26.2,31.31,NE,38,0.0,0.0,46,0.00,,,0.00,VWS V14.01,2013-01-07 08:01:00,
2013-01-07 00:06:00,45.6,26.0,31.31,NE,38,0.0,2.0,46,0.00,,,0.00,VWS V14.01,2013-01-07 08:06:00,
2013-01-07 00:11:00,45.5,25.9,31.31,NE,38,0.0,3.0,46,0.00,,,0.00,VWS V14.01,2013-01-07 08:11:00,
2013-01-07 00:16:00,45.3,25.8,31.31,NE,38,1.0,3.0,46,0.00,,,0.00,VWS V14.01,2013-01-07 08:16:00,
2013-01-07 00:21:00,45.2,25.1,31.31,NE,38,1.0,3.0,45,0.00,,,0.00,VWS V14.01,2013-01-07 08:21:00,
2013-01-07 00:26:00,45.3,25.2,31.31,NE,39,2.0,3.0,45,0.00,,,0.00,VWS V14.01,2013-01-07 08:26:00,
2013-01-07 00:30:00,45.5,24.9,31.31,NE,39,0.0,3.0,44,0.00,,,0.00,VWS V14.01,2013-01-07 08:30:00,
2013-01-07 00:31:00,45.5,24.9,31.31,NE,39,1.0,1.0,44,0.00,,,0.00,VWS V14.01,2013-01-07 08:31:00,
2013-01-07 00:36:00,45.7,25.0,31.31,NE,39,0.0,2.0,44,0.00,,,0.00,VWS V14.01,2013-01-07 08:36:00,
2013-01-07 00:41:00,45.8,25.1,31.31,NE,40,2.0,3.0,44,0.00,,,0.00,VWS V14.01,2013-01-07 08:41:00,
2013-01-07 00:46:00,45.8,25.1,31.31,NE,40,0.0,3.0,44,0.00,,,0.00,VWS V14.01,2013-01-07 08:46:00,
2013-01-07 00:51:00,45.6,25.5,31.31,NE,40,2.0,3.0,45,0.00,,,0.00,VWS V14.01,2013-01-07 08:51:00,
2013-01-07 00:56:00,45.5,25.4,31.31,NE,40,0.0,3.0,45,0.00,,,0.00,VWS V14.01,2013-01-07 08:56:00,
2013-01-07 01:00:00,45.5,25.4,31.31,NE,40,0.0,3.0,45,0.00,,,0.00,VWS V14.01,2013-01-07 09:00:00,
2013-01-07 01:01:00,45.4,25.9,31.31,NE,40,0.0,0.0,46,0.00,,,0.00,VWS V14.01,2013-01-07 09:01:00,
2013-01-07 01:06:00,45.5,25.9,31.31,NE,40,0.0,2.0,46,0.00,,,0.00,VWS V14.01,2013-01-07 09:06:00,
2013-01-07 01:11:00,45.5,25.9,31.31,NE,40,1.0,2.0,46,0.00,,,0.00,VWS V14.01,2013-01-07 09:11:00,
2013-01-07 01:16:00,45.3,25.8,31.31,NE,40,0.0,3.0,46,0.00,,,0.00,VWS V14.01,2013-01-07 09:16:00,
2013-01-07 01:21:00,45.4,25.9,31.31,NE,40,0.0,3.0,46,0.00,,,0.00,VWS V14.01,2013-01-07 09:21:00,
2013-01-07 01:26:00,45.5,25.9,31.31,NE,39,2.0,3.0,46,0.00,,,0.00,VWS V14.01,2013-01-07 09:26:00,
2013-01-07 01:30:00,45.6,26.0,31.31,NE,40,1.0,3.0,46,0.00,,,0.00,VWS V14.01,2013-01-07 09:30:00,
2013-01-07 01:31:00,45.6,26.0,31.31,NE,40,0.0,2.0,46,0.00,,,0.00,VWS V14.01,2013-01-07 09:31:00,
2013-01-07 01:36:00,45.8,26.2,31.31,NE,40,2.0,2.0,46,0.00,,,0.00,VWS V14.01,2013-01-07 09:36:00,
2013-01-07 01:41:00,46.0,26.9,31.31,NE,40,3.0,3.0,47,0.00,,,0.00,VWS V14.01,2013-01-07 09:41:00,
2013-01-07 01:46:00,46.1,27.0,31.31,NE,45,0.0,4.0,47,0.00,,,0.00,VWS V14.01,2013-01-07 09:46:00,
2013-01-07 01:51:00,46.0,27.9,31.31,NE,44,0.0,4.0,49,0.00,,,0.00,VWS V14.01,2013-01-07 09:51:00,
2013-01-07 01:56:00,46.0,28.4,26.61,NE,44,1.0,4.0,50,0.00,,,0.00,VWS V14.01,2013-01-07 09:56:00,
2013-01-07 02:00:00,45.9,28.8,26.61,NE,45,1.0,4.0,51,0.00,,,0.00,VWS V14.01,2013-01-07 10:00:00,
2013-01-07 02:01:00,45.8,28.7,26.61,NE,45,1.0,2.0,51,0.00,,,0.00,VWS V14.01,2013-01-07 10:01:00,
2013-01-07 02:06:00,45.6,29.0,26.61,NE,45,0.0,2.0,52,0.00,,,0.00,VWS V14.01,2013-01-07 10:06:00,
2013-01-07 02:11:00,45.4,28.8,25.33,NE,45,2.0,2.0,52,0.00,,,0.00,VWS V14.01,2013-01-07 10:11:00,
2013-01-07 02:16:00,45.3,28.7,25.33,NE,45,1.0,2.0,52,0.00,,,0.00,VWS V14.01,2013-01-07 10:16:00,
2013-01-07 02:21:00,45.4,28.8,25.33,NE,44,2.0,3.0,52,0.00,,,0.00,VWS V14.01,2013-01-07 10:21:00,
2013-01-07 02:26:00,45.4,29.3,25.33,NE,44,2.0,3.0,53,0.00,,,0.00,VWS V14.01,2013-01-07 10:26:00,
2013-01-07 02:30:00,45.3,29.2,25.33,NE,44,0.0,3.0,53,0.00,,,0.00,VWS V14.01,2013-01-07 10:30:00,
2013-01-07 02:31:00,45.3,29.6,25.33,NE,44,0.0,0.0,54,0.00,,,0.00,VWS V14.01,2013-01-07 10:31:00,
2013-01-07 02:36:00,45.0,29.4,25.33,NE,44,0.0,2.0,54,0.00,,,0.00,VWS V14.01,2013-01-07 10:36:00,
2013-01-07 02:41:00,45.0,29.4,25.33,NE,43,1.0,3.0,54,0.00,,,0.00,VWS V14.01,2013-01-07 10:41:00,
2013-01-07 02:46:00,44.7,29.5,25.33,NE,42,0.0,3.0,55,0.00,,,0.00,VWS V14.01,2013-01-07 10:46:00,
2013-01-07 02:51:00,44.2,29.5,25.33,NE,42,0.0,3.0,56,0.00,,,0.00,VWS V14.01,2013-01-07 10:51:00,
2013-01-07 02:56:00,44.0,29.3,25.33,NE,42,0.0,3.0,56,0.00,,,0.00,VWS V14.01,2013-01-07 10:56:00,
2013-01-07 03:00:00,44.0,28.9,25.33,NE,42,0.0,3.0,55,0.00,,,0.00,VWS V14.01,2013-01-07 11:00:00,
2013-01-07 03:01:00,44.0,28.9,25.33,NE,42,0.0,0.0,55,0.00,,,0.00,VWS V14.01,2013-01-07 11:01:00,
2013-01-07 03:06:00,43.9,28.8,25.33,NE,42,1.0,2.0,55,0.00,,,0.00,VWS V14.01,2013-01-07 11:06:00,
2013-01-07 03:11:00,43.9,28.8,25.33,NE,44,1.0,3.0,55,0.00,,,0.00,VWS V14.01,2013-01-07 11:11:00,
2013-01-07 03:16:00,43.8,28.7,25.33,NE,44,1.0,3.0,55,0.00,,,0.00,VWS V14.01,2013-01-07 11:16:00,
2013-01-07 03:21:00,43.5,28.9,25.33,NE,42,0.0,3.0,56,0.00,,,0.00,VWS V14.01,2013-01-07 11:21:00,
2013-01-07 03:26:00,43.3,28.7,25.33,NE,43,0.0,3.0,56,0.00,,,0.00,VWS V14.01,2013-01-07 11:26:00,
2013-01-07 03:30:00,43.2,28.6,25.33,NE,44,3.0,3.0,56,0.00,,,0.00,VWS V14.01,2013-01-07 11:30:00,
2013-01-07 03:31:00,43.2,28.6,25.33,NE,44,0.0,3.0,56,0.00,,,0.00,VWS V14.01,2013-01-07 11:31:00,
2013-01-07 03:36:00,43.3,28.2,25.33,NE,44,0.0,3.0,55,0.00,,,0.00,VWS V14.01,2013-01-07 11:36:00,
2013-01-07 03:41:00,43.1,28.5,25.33,NE,42,0.0,3.0,56,0.00,,,0.00,VWS V14.01,2013-01-07 11:41:00,
2013-01-07 03:46:00,42.8,28.2,25.33,NE,41,0.0,3.0,56,0.00,,,0.00,VWS V14.01,2013-01-07 11:46:00,
2013-01-07 03:51:00,42.8,28.2,25.33,NE,41,1.0,3.0,56,0.00,,,0.00,VWS V14.01,2013-01-07 11:51:00,
2013-01-07 03:56:00,42.6,28.0,25.33,NE,41,0.0,3.0,56,0.00,,,0.00,VWS V14.01,2013-01-07 11:56:00,
2013-01-07 04:00:00,42.5,27.9,25.33,NE,41,0.0,3.0,56,0.00,,,0.00,VWS V14.01,2013-01-07 12:00:00,
2013-01-07 04:01:00,42.4,27.8,25.33,NE,42,2.0,2.0,56,0.00,,,0.00,VWS V14.01,2013-01-07 12:01:00,
2013-01-07 04:06:00,42.2,27.6,25.33,NE,42,0.0,2.0,56,0.00,,,0.00,VWS V14.01,2013-01-07 12:06:00,
2013-01-07 04:11:00,42.1,27.1,25.33,NE,42,0.0,2.0,55,0.00,,,0.00,VWS V14.01,2013-01-07 12:11:00,
2013-01-07 04:16:00,42.1,27.1,25.33,NE,42,0.0,2.0,55,0.00,,,0.00,VWS V14.01,2013-01-07 12:16:00,
2013-01-07 04:21:00,42.1,27.1,25.33,NE,41,0.0,2.0,55,0.00,,,0.00,VWS V14.01,2013-01-07 12:21:00,
2013-01-07 04:26:00,41.9,26.9,25.33,NE,41,3.0,3.0,55,0.00,,,0.00,VWS V14.01,2013-01-07 12:26:00,
2013-01-07 04:30:00,41.7,26.7,25.33,NE,41,0.0,3.0,55,0.00,,,0.00,VWS V14.01,2013-01-07 12:30:00,
2013-01-07 04:31:00,41.7,26.7,25.33,NE,42,0.0,2.0,55,0.00,,,0.00,VWS V14.01,2013-01-07 12:31:00,
2013-01-07 04:36:00,41.6,26.6,25.33,NE,42,0.0,2.0,55,0.00,,,0.00,VWS V14.01,2013-01-07 12:36:00,
2013-01-07 04:41:00,41.7,26.7,25.33,NE,42,0.0,2.0,55,0.00,,,0.00,VWS V14.01,2013-01-07 12:41:00,
2013-01-07 04:46:00,41.8,26.8,25.33,NE,42,0.0,2.0,55,0.00,,,0.00,VWS V14.01,2013-01-07 12:46:00,
2013-01-07 04:51:00,41.6,26.6,25.33,NE,42,0.0,2.0,55,0.00,,,0.00,VWS V14.01,2013-01-07 12:51:00,
2013-01-07 04:56:00,41.5,26.5,25.33,NE,43,0.0,2.0,55,0.00,,,0.00,VWS V14.01,2013-01-07 12:56:00,
2013-01-07 05:00:00,41.4,26.5,25.33,NE,43,0.0,2.0,55,0.00,,,0.00,VWS V14.01,2013-01-07 13:00:00,
2013-01-07 05:01:00,41.3,26.4,25.33,NE,42,0.0,2.0,55,0.00,,,0.00,VWS V14.01,2013-01-07 13:01:00,
2013-01-07 05:06:00,41.1,26.2,25.33,NE,42,0.0,3.0,55,0.00,,,0.00,VWS V14.01,2013-01-07 13:06:00,
2013-01-07 05:11:00,41.0,26.1,25.33,NE,42,0.0,3.0,55,0.00,,,0.00,VWS V14.01,2013-01-07 13:11:00,
2013-01-07 05:16:00,40.9,26.0,25.33,NE,42,0.0,3.0,55,0.00,,,0.00,VWS V14.01,2013-01-07 13:16:00,
2013-01-07 05:21:00,40.8,25.9,25.33,NE,43,0.0,3.0,55,0.00,,,0.00,VWS V14.01,2013-01-07 13:21:00,
2013-01-07 05:26:00,40.7,25.8,25.33,NE,42,0.0,3.0,55,0.00,,,0.00,VWS V14.01,2013-01-07 13:26:00,
2013-01-07 05:30:00,40.6,25.7,25.33,NE,42,0.0,3.0,55,0.00,,,0.00,VWS V14.01,2013-01-07 13:30:00,
2013-01-07 05:31:00,40.6,25.7,25.33,NE,42,0.0,1.0,55,0.00,,,0.00,VWS V14.01,2013-01-07 13:31:00,
2013-01-07 05:36:00,40.6,25.3,25.33,NE,43,0.0,2.0,54,0.00,,,0.00,VWS V14.01,2013-01-07 13:36:00,
2013-01-07 05:41:00,40.7,25.4,25.33,NE,43,3.0,3.0,54,0.00,,,0.00,VWS V14.01,2013-01-07 13:41:00,
2013-01-07 05:46:00,40.8,25.9,25.33,NE,42,1.0,3.0,55,0.00,,,0.00,VWS V14.01,2013-01-07 13:46:00,
2013-01-07 05:51:00,40.6,25.7,25.33,NE,42,0.0,3.0,55,0.00,,,0.00,VWS V14.01,2013-01-07 13:51:00,
2013-01-07 05:56:00,40.6,25.7,25.33,NE,44,0.0,3.0,55,0.00,,,0.00,VWS V14.01,2013-01-07 13:56:00,
2013-01-07 06:00:00,40.6,25.7,25.33,NE,44,0.0,3.0,55,0.00,,,0.00,VWS V14.01,2013-01-07 14:00:00,
2013-01-07 06:01:00,40.6,26.1,25.33,NE,44,0.0,0.0,56,0.00,,,0.00,VWS V14.01,2013-01-07 14:01:00,
2013-01-07 06:06:00,40.5,26.0,25.33,NE,44,3.0,3.0,56,0.00,,,0.00,VWS V14.01,2013-01-07 14:06:00,
2013-01-07 06:11:00,40.6,26.1,25.33,NE,51,2.0,4.0,56,0.00,,,0.00,VWS V14.01,2013-01-07 14:11:00,
2013-01-07 06:16:00,40.6,26.1,25.33,NE,52,1.0,4.0,56,0.00,,,0.00,VWS V14.01,2013-01-07 14:16:00,
2013-01-07 06:21:00,40.6,26.1,25.33,NE,49,0.0,4.0,56,0.00,,,0.00,VWS V14.01,2013-01-07 14:21:00,
2013-01-07 06:26:00,40.7,26.7,20.61,NE,46,2.0,4.0,57,0.00,,,0.00,VWS V14.01,2013-01-07 14:26:00,
2013-01-07 06:30:00,40.8,26.8,20.61,NE,46,0.0,4.0,57,0.00,,,0.00,VWS V14.01,2013-01-07 14:30:00,
2013-01-07 06:31:00,40.9,26.9,20.61,NE,46,1.0,2.0,57,0.00,,,0.00,VWS V14.01,2013-01-07 14:31:00,
2013-01-07 06:36:00,41.2,27.1,20.61,NNE,27,2.0,3.0,57,0.00,,,0.00,VWS V14.01,2013-01-07 14:36:00,
2013-01-07 06:41:00,41.3,27.2,20.61,NNE,27,2.0,3.0,57,0.00,,,0.00,VWS V14.01,2013-01-07 14:41:00,
2013-01-07 06:46:00,41.3,27.6,20.61,NNE,27,2.0,3.0,58,0.00,,,0.00,VWS V14.01,2013-01-07 14:46:00,
2013-01-07 06:51:00,42.1,28.8,20.61,NNE,22,1.0,3.0,59,0.00,,,0.00,VWS V14.01,2013-01-07 14:51:00,
2013-01-07 06:56:00,42.7,29.8,20.61,NNE,17,0.0,3.0,60,0.00,,,0.00,VWS V14.01,2013-01-07 14:56:00,
2013-01-07 07:00:00,43.1,31.0,20.61,NNE,17,2.0,3.0,62,0.00,,,0.00,VWS V14.01,2013-01-07 15:00:00,
2013-01-07 07:01:00,43.4,31.3,20.61,NNE,26,1.0,3.0,62,0.00,,,0.00,VWS V14.01,2013-01-07 15:01:00,
2013-01-07 07:06:00,44.0,31.8,20.61,NE,36,2.0,3.0,62,0.00,,,0.00,VWS V14.01,2013-01-07 15:06:00,
2013-01-07 07:11:00,44.6,32.4,20.61,ENE,59,2.0,5.0,62,0.00,,,0.00,VWS V14.01,2013-01-07 15:11:00,
2013-01-07 07:16:00,45.8,33.1,20.61,ENE,61,4.0,6.0,61,0.00,,,0.00,VWS V14.01,2013-01-07 15:16:00,
2013-01-07 07:21:00,46.0,33.3,20.61,ENE,65,4.0,7.0,61,0.00,,,0.00,VWS V14.01,2013-01-07 15:21:00,
2013-01-07 07:26:00,46.2,33.5,20.61,ENE,76,3.0,7.0,61,0.00,,,0.00,VWS V14.01,2013-01-07 15:26:00,
2013-01-07 07:30:00,46.1,33.4,20.61,ENE,61,4.0,7.0,61,0.00,,,0.00,VWS V14.01,2013-01-07 15:30:00,
2013-01-07 07:31:00,46.0,33.3,20.61,ENE,63,5.0,5.0,61,0.00,,,0.00,VWS V14.01,2013-01-07 15:31:00,
2013-01-07 07:36:00,45.9,33.2,20.61,ENE,69,3.0,8.0,61,0.00,,,0.00,VWS V14.01,2013-01-07 15:36:00,
2013-01-07 07:41:00,45.9,33.6,20.61,ENE,72,0.0,8.0,62,0.00,,,0.00,VWS V14.01,2013-01-07 15:41:00,
2013-01-07 07:46:00,46.0,33.7,20.61,ENE,71,3.0,8.0,62,0.00,,,0.00,VWS V14.01,2013-01-07 15:46:00,
2013-01-07 07:51:00,45.9,33.6,20.61,ENE,76,3.0,8.0,62,0.00,,,0.00,VWS V14.01,2013-01-07 15:51:00,
2013-01-07 07:56:00,45.7,33.4,20.61,ENE,63,2.0,8.0,62,0.00,,,0.00,VWS V14.01,2013-01-07 15:56:00,
2013-01-07 08:00:00,46.0,33.7,20.61,ENE,69,3.0,8.0,62,0.00,,,0.00,VWS V14.01,2013-01-07 16:00:00,
2013-01-07 08:01:00,46.3,34.0,20.61,NE,54,4.0,4.0,62,0.00,,,0.00,VWS V14.01,2013-01-07 16:01:00,
2013-01-07 08:06:00,47.1,34.4,20.61,ENE,71,3.0,7.0,61,0.00,,,0.00,VWS V14.01,2013-01-07 16:06:00,
2013-01-07 08:11:00,48.4,35.2,20.61,NNE,32,2.0,7.0,60,0.00,,,0.00,VWS V14.01,2013-01-07 16:11:00,
2013-01-07 08:16:00,49.2,35.5,20.61,ENE,57,4.0,7.0,59,0.00,,,0.00,VWS V14.01,2013-01-07 16:16:00,
2013-01-07 08:21:00,49.8,36.1,20.61,ENE,70,3.0,7.0,59,0.00,,,0.00,VWS V14.01,2013-01-07 16:21:00,
2013-01-07 08:26:00,50.4,36.2,20.61,NE,37,1.0,7.0,58,0.00,,,0.00,VWS V14.01,2013-01-07 16:26:00,
2013-01-07 08:30:00,50.9,36.7,20.61,NE,38,0.0,7.0,58,0.00,,,0.00,VWS V14.01,2013-01-07 16:30:00,
2013-01-07 08:31:00,51.2,37.0,20.61,NE,38,0.0,1.0,58,0.00,,,0.00,VWS V14.01,2013-01-07 16:31:00,
2013-01-07 08:36:00,52.1,37.3,20.61,ENE,67,3.0,4.0,57,0.00,,,0.00,VWS V14.01,2013-01-07 16:36:00,
2013-01-07 08:41:00,52.8,37.5,20.61,East,82,4.0,5.0,56,0.00,,,0.00,VWS V14.01,2013-01-07 16:41:00,
2013-01-07 08:46:00,53.3,38.0,20.61,East,82,0.0,5.0,56,0.00,,,0.00,VWS V14.01,2013-01-07 16:46:00,
2013-01-07 08:51:00,53.3,38.0,20.61,NNW,336,2.0,5.0,56,0.00,,,0.00,VWS V14.01,2013-01-07 16:51:00,
2013-01-07 08:56:00,53.5,37.8,20.61,WSW,246,2.0,5.0,55,0.00,,,0.00,VWS V14.01,2013-01-07 16:56:00,
2013-01-07 09:00:00,53.8,38.5,20.61,WSW,246,0.0,5.0,56,0.00,,,0.00,VWS V14.01,2013-01-07 17:00:00,
2013-01-07 09:01:00,53.9,38.6,20.61,WSW,246,0.0,1.0,56,0.00,,,0.00,VWS V14.01,2013-01-07 17:01:00,
2013-01-07 09:06:00,54.2,37.9,20.61,WSW,246,0.0,1.0,54,0.00,,,0.00,VWS V14.01,2013-01-07 17:06:00,
2013-01-07 09:11:00,54.5,38.2,31.31,WSW,246,0.0,1.0,54,0.00,,,0.00,VWS V14.01,2013-01-07 17:11:00,
2013-01-07 09:16:00,55.0,38.2,31.31,WSW,244,1.0,2.0,53,0.00,,,0.00,VWS V14.01,2013-01-07 17:16:00,
2013-01-07 09:21:00,55.3,38.5,31.31,WSW,244,0.0,2.0,53,0.00,,,0.00,VWS V14.01,2013-01-07 17:21:00,
2013-01-07 09:26:00,55.8,38.5,31.31,West,261,0.0,2.0,52,0.00,,,0.00,VWS V14.01,2013-01-07 17:26:00,
2013-01-07 09:30:00,55.8,38.5,31.31,WSW,257,0.0,2.0,52,0.00,,,0.00,VWS V14.01,2013-01-07 17:30:00,
2013-01-07 09:31:00,55.9,39.0,31.31,WSW,257,0.0,1.0,53,0.00,,,0.00,VWS V14.01,2013-01-07 17:31:00,
2013-01-07 09:36:00,56.0,38.6,31.31,NNW,329,2.0,4.0,52,0.00,,,0.00,VWS V14.01,2013-01-07 17:36:00,
2013-01-07 09:41:00,56.2,38.8,31.31,NW,306,3.0,6.0,52,0.00,,,0.00,VWS V14.01,2013-01-07 17:41:00,
2013-01-07 09:46:00,56.3,39.4,31.31,NW,307,0.0,6.0,53,0.00,,,0.00,VWS V14.01,2013-01-07 17:46:00,
2013-01-07 09:51:00,56.8,39.4,31.31,NW,308,0.0,6.0,52,0.00,,,0.00,VWS V14.01,2013-01-07 17:51:00,
2013-01-07 09:56:00,57.2,39.8,31.31,NW,306,1.0,6.0,52,0.00,,,0.00,VWS V14.01,2013-01-07 17:56:00,
2013-01-07 10:00:00,57.0,39.6,31.31,NW,305,0.0,6.0,52,0.00,,,0.00,VWS V14.01,2013-01-07 18:00:00,
2013-01-07 10:01:00,57.1,39.7,31.31,West,272,3.0,3.0,52,0.00,,,0.00,VWS V14.01,2013-01-07 18:01:00,
2013-01-07 10:06:00,57.0,39.1,31.31,WSW,258,0.0,3.0,51,0.00,,,0.00,VWS V14.01,2013-01-07 18:06:00,
2013-01-07 10:11:00,57.6,40.1,31.31,WSW,258,0.0,3.0,52,0.00,,,0.00,VWS V14.01,2013-01-07 18:11:00,
2013-01-07 10:16:00,57.6,39.6,31.31,WSW,258,1.0,3.0,51,0.00,,,0.00,VWS V14.01,2013-01-07 18:16:00,
2013-01-07 10:21:00,57.7,39.7,31.31,WSW,258,0.0,3.0,51,0.00,,,0.00,VWS V14.01,2013-01-07 18:21:00,
2013-01-07 10:26:00,57.8,40.3,31.31,South,185,1.0,5.0,52,0.00,,,0.00,VWS V14.01,2013-01-07 18:26:00,
2013-01-07 10:30:00,58.0,41.0,31.31,South,175,0.0,5.0,53,0.00,,,0.00,VWS V14.01,2013-01-07 18:30:00,
2013-01-07 10:31:00,58.1,40.6,31.31,WSW,254,5.0,6.0,52,0.00,,,0.00,VWS V14.01,2013-01-07 18:31:00,
2013-01-07 10:36:00,58.2,40.7,31.31,SW,224,2.0,6.0,52,0.00,,,0.00,VWS V14.01,2013-01-07 18:36:00,
2013-01-07 10:41:00,58.0,40.5,31.31,SSW,207,1.0,6.0,52,0.00,,,0.00,VWS V14.01,2013-01-07 18:41:00,
2013-01-07 10:46:00,57.7,40.2,31.31,SW,232,1.0,6.0,52,0.00,,,0.00,VWS V14.01,2013-01-07 18:46:00,
2013-01-07 10:51:00,57.7,40.7,31.31,SSW,196,0.0,6.0,53,0.00,,,0.00,VWS V14.01,2013-01-07 18:51:00,
2013-01-07 10:56:00,57.9,40.9,31.31,South,184,0.0,6.0,53,0.00,,,0.00,VWS V14.01,2013-01-07 18:56:00,
2013-01-07 11:00:00,58.0,41.0,31.31,SW,233,3.0,6.0,53,0.00,,,0.00,VWS V14.01,2013-01-07 19:00:00,
2013-01-07 11:01:00,58.0,41.0,31.31,SW,232,1.0,4.0,53,0.00,,,0.00,VWS V14.01,2013-01-07 19:01:00,
2013-01-07 11:05:00,58.1,40.6,31.31,WSW,254,2.0,5.0,52,0.00,,,0.00,VWS V14.01,2013-01-07 19:05:00,
2013-01-07 11:10:00,58.1,40.6,31.31,WSW,254,0.0,5.0,52,0.00,,,0.00,VWS V14.01,2013-01-07 19:10:00,
2013-01-07 11:15:00,59.0,41.4,31.31,WSW,255,0.0,5.0,52,0.00,,,0.00,VWS V14.01,2013-01-07 19:15:00,
2013-01-07 11:20:00,60.1,41.4,31.31,WNW,301,1.0,5.0,50,0.00,,,0.00,VWS V14.01,2013-01-07 19:20:00,
2013-01-07 11:25:00,59.0,40.4,31.31,WSW,248,1.0,6.0,50,0.00,,,0.00,VWS V14.01,2013-01-07 19:25:00,
2013-01-07 11:30:00,59.0,40.9,31.31,WSW,244,4.0,5.0,51,0.00,,,0.00,VWS V14.01,2013-01-07 19:30:00,
2013-01-07 11:35:00,58.7,40.6,31.31,WNW,292,3.0,5.0,51,0.00,,,0.00,VWS V14.01,2013-01-07 19:35:00,
2013-01-07 11:40:00,59.0,40.9,31.31,WSW,244,2.0,5.0,51,0.00,,,0.00,VWS V14.01,2013-01-07 19:40:00,
2013-01-07 11:45:00,59.0,40.9,31.31,South,189,2.0,6.0,51,0.00,,,0.00,VWS V14.01,2013-01-07 19:45:00,
2013-01-07 11:50:00,59.0,40.4,31.31,WSW,243,2.0,6.0,50,0.00,,,0.00,VWS V14.01,2013-01-07 19:50:00,
2013-01-07 11:55:00,59.0,40.9,31.31,West,270,2.0,6.0,51,0.00,,,0.00,VWS V14.01,2013-01-07 19:55:00,
2013-01-07 12:00:00,59.0,40.9,31.31,SW,215,2.0,5.0,51,0.00,,,0.00,VWS V14.01,2013-01-07 20:00:00,
2013-01-07 12:05:00,59.0,41.4,31.31,West,261,2.0,7.0,52,0.00,,,0.00,VWS V14.01,2013-01-07 20:05:00,
2013-01-07 12:10:00,59.4,40.8,31.31,WSW,242,3.0,7.0,50,0.00,,,0.00,VWS V14.01,2013-01-07 20:10:00,
2013-01-07 12:15:00,59.4,41.8,31.31,South,191,2.0,7.0,52,0.00,,,0.00,VWS V14.01,2013-01-07 20:15:00,
2013-01-07 12:19:00,59.5,41.9,31.31,SW,229,7.0,8.0,52,0.00,,,0.00,VWS V14.01,2013-01-07 20:19:00,
2013-01-07 12:24:00,59.1,42.5,31.31,SSW,196,2.0,8.0,54,0.00,,,0.00,VWS V14.01,2013-01-07 20:24:00,
2013-01-07 12:29:00,59.3,42.7,31.31,WSW,246,2.0,8.0,54,0.00,,,0.00,VWS V14.01,2013-01-07 20:29:00,
2013-01-07 12:30:00,59.3,42.7,31.31,WSW,246,2.0,8.0,54,0.00,,,0.00,VWS V14.01,2013-01-07 20:30:00,
2013-01-07 12:34:00,59.0,41.9,31.31,SSW,197,3.0,7.0,53,0.00,,,0.00,VWS V14.01,2013-01-07 20:34:00,
2013-01-07 12:39:00,58.2,41.7,31.31,SW,225,7.0,8.0,54,0.00,,,0.00,VWS V14.01,2013-01-07 20:39:00,
2013-01-07 12:44:00,58.4,42.3,31.31,SW,224,1.0,8.0,55,0.00,,,0.00,VWS V14.01,2013-01-07 20:44:00,
2013-01-07 12:49:00,58.9,43.2,31.31,WSW,240,2.0,8.0,56,0.00,,,0.00,VWS V14.01,2013-01-07 20:49:00,
2013-01-07 12:54:00,58.7,43.1,31.31,SSW,212,2.0,8.0,56,0.00,,,0.00,VWS V14.01,2013-01-07 20:54:00,
2013-01-07 12:59:00,59.0,43.3,31.31,SW,218,1.0,8.0,56,0.00,,,0.00,VWS V14.01,2013-01-07 20:59:00,
2013-01-07 13:00:00,59.0,43.3,31.31,SW,218,2.0,8.0,56,0.00,,,0.00,VWS V14.01,2013-01-07 21:00:00,
2013-01-07 13:04:00,59.0,41.9,31.31,South,184,0.0,5.0,53,0.00,,,0.00,VWS V14.01,2013-01-07 21:04:00,
2013-01-07 13:09:00,59.5,41.9,31.31,WSW,252,4.0,5.0,52,0.00,,,0.00,VWS V14.01,2013-01-07 21:09:00,
2013-01-07 13:14:00,59.0,42.4,31.31,West,271,0.0,5.0,54,0.00,,,0.00,VWS V14.01,2013-01-07 21:14:00,
2013-01-07 13:19:00,59.0,42.4,31.31,SSW,213,4.0,8.0,54,0.00,,,0.00,VWS V14.01,2013-01-07 21:19:00,
2013-01-07 13:24:00,59.0,42.4,31.31,SW,227,1.0,8.0,54,0.00,,,0.00,VWS V14.01,2013-01-07 21:24:00,
2013-01-07 13:29:00,59.0,42.9,31.31,SW,231,2.0,8.0,55,0.00,,,0.00,VWS V14.01,2013-01-07 21:29:00,
2013-01-07 13:30:00,59.0,42.9,31.31,WSW,250,4.0,8.0,55,0.00,,,0.00,VWS V14.01,2013-01-07 21:30:00,
2013-01-07 13:34:00,59.0,42.9,31.31,WSW,239,3.0,7.0,55,0.00,,,0.00,VWS V14.01,2013-01-07 21:34:00,
2013-01-07 13:39:00,59.5,43.3,31.31,West,273,2.0,8.0,55,0.00,,,0.00,VWS V14.01,2013-01-07 21:39:00,
2013-01-07 13:44:00,59.0,41.9,31.31,WNW,284,3.0,9.0,53,0.00,,,0.00,VWS V14.01,2013-01-07 21:44:00,
2013-01-07 13:49:00,59.0,40.4,31.31,WSW,250,1.0,9.0,50,0.00,,,0.00,VWS V14.01,2013-01-07 21:49:00,
2013-01-07 13:54:00,59.4,40.8,31.31,SW,225,11.0,11.0,50,0.00,,,0.00,VWS V14.01,2013-01-07 21:54:00,
2013-01-07 13:59:00,59.0,39.4,31.31,SW,231,1.0,11.0,48,0.00,,,0.00,VWS V14.01,2013-01-07 21:59:00,
2013-01-07 14:00:00,59.0,39.4,31.31,SW,227,5.0,11.0,48,0.00,,,0.00,VWS V14.01,2013-01-07 22:00:00,
2013-01-07 14:04:00,59.4,39.7,31.31,WSW,255,3.0,6.0,48,0.00,,,0.00,VWS V14.01,2013-01-07 22:04:00,
2013-01-07 14:09:00,59.5,39.8,31.31,WNW,287,0.0,9.0,48,0.00,,,0.00,VWS V14.01,2013-01-07 22:09:00,
2013-01-07 14:14:00,60.4,40.1,31.31,West,270,0.0,9.0,47,0.00,,,0.00,VWS V14.01,2013-01-07 22:14:00,
2013-01-07 14:19:00,60.9,38.9,31.31,WNW,293,8.0,9.0,44,0.00,,,0.00,VWS V14.01,2013-01-07 22:19:00,
2013-01-07 14:24:00,60.3,38.3,31.31,WNW,296,4.0,11.0,44,0.00,,,0.00,VWS V14.01,2013-01-07 22:24:00,
2013-01-07 14:29:00,60.5,37.9,31.31,NW,319,3.0,11.0,43,0.00,,,0.00,VWS V14.01,2013-01-07 22:29:00,
2013-01-07 14:30:00,60.5,37.9,31.31,West,272,3.0,11.0,43,0.00,,,0.00,VWS V14.01,2013-01-07 22:30:00,
2013-01-07 14:34:00,60.6,37.4,31.31,WSW,244,3.0,10.0,42,0.00,,,0.00,VWS V14.01,2013-01-07 22:34:00,
2013-01-07 14:39:00,60.2,37.0,31.31,SW,236,8.0,10.0,42,0.00,,,0.00,VWS V14.01,2013-01-07 22:39:00,
2013-01-07 14:44:00,59.8,37.3,31.31,WSW,254,4.0,10.0,43,0.00,,,0.00,VWS V14.01,2013-01-07 22:44:00,
2013-01-07 14:49:00,59.7,37.2,31.31,WSW,256,4.0,10.0,43,0.00,,,0.00,VWS V14.01,2013-01-07 22:49:00,
2013-01-07 14:54:00,60.0,37.5,31.31,WNW,301,3.0,10.0,43,0.00,,,0.00,VWS V14.01,2013-01-07 22:54:00,
2013-01-07 14:59:00,60.6,38.0,31.31,WSW,242,8.0,10.0,43,0.00,,,0.00,VWS V14.01,2013-01-07 22:59:00,
2013-01-07 15:00:00,60.5,37.9,31.31,WSW,242,3.0,10.0,43,0.00,,,0.00,VWS V14.01,2013-01-07 23:00:00,
2013-01-07 15:04:00,60.7,38.1,31.31,WNW,290,5.0,8.0,43,0.00,,,0.00,VWS V14.01,2013-01-07 23:04:00,
2013-01-07 15:09:00,60.7,37.5,31.31,West,266,1.0,8.0,42,0.00,,,0.00,VWS V14.01,2013-01-07 23:09:00,
2013-01-07 15:14:00,61.0,37.2,31.31,NW,314,3.0,8.0,41,0.00,,,0.00,VWS V14.01,2013-01-07 23:14:00,
2013-01-07 15:19:00,60.9,37.1,31.31,SW,232,6.0,9.0,41,0.00,,,0.00,VWS V14.01,2013-01-07 23:19:00,
2013-01-07 15:24:00,61.1,36.6,31.31,WNW,297,2.0,9.0,40,0.00,,,0.00,VWS V14.01,2013-01-07 23:24:00,
2013-01-07 15:29:00,61.6,37.1,31.31,SW,222,2.0,9.0,40,0.00,,,0.00,VWS V14.01,2013-01-07 23:29:00,
2013-01-07 15:30:00,61.6,37.1,31.31,West,263,3.0,9.0,40,0.00,,,0.00,VWS V14.01,2013-01-07 23:30:00,
2013-01-07 15:34:00,61.3,36.2,31.31,West,263,4.0,6.0,39,0.00,,,0.00,VWS V14.01,2013-01-07 23:34:00,
2013-01-07 15:39:00,60.6,36.2,31.31,WSW,255,1.0,7.0,40,0.00,,,0.00,VWS V14.01,2013-01-07 23:39:00,
2013-01-07 15:44:00,60.9,37.1,31.31,WSW,251,2.0,7.0,41,0.00,,,0.00,VWS V14.01,2013-01-07 23:44:00,
2013-01-07 15:49:00,60.9,36.4,31.31,WSW,249,5.0,7.0,40,0.00,,,0.00,VWS V14.01,2013-01-07 23:49:00,
2013-01-07 15:54:00,60.5,36.7,31.31,WSW,252,1.0,7.0,41,0.00,,,0.00,VWS V14.01,2013-01-07 23:54:00,
2013-01-07 15:59:00,60.5,37.3,31.31,West,267,5.0,7.0,42,0.00,,,0.00,VWS V14.01,2013-01-07 23:59:00,
2013-01-07 16:00:00,60.5,36.7,31.31,West,265,3.0,7.0,41,0.00,,,0.00,VWS V14.01,2013-01-08 00:00:00,
2013-01-07 16:04:00,60.3,37.1,31.31,WSW,253,4.0,5.0,42,0.00,,,0.00,VWS V14.01,2013-01-08 00:04:00,
2013-01-07 16:09:00,60.4,37.8,31.31,WSW,252,0.0,5.0,43,0.00,,,0.00,VWS V14.01,2013-01-08 00:09:00,
2013-01-07 16:14:00,60.6,38.0,31.31,WSW,252,0.0,5.0,43,0.00,,,0.00,VWS V14.01,2013-01-08 00:14:00,
2013-01-07 16:19:00,61.0,38.4,31.31,WSW,252,0.0,5.0,43,0.00,,,0.00,VWS V14.01,2013-01-08 00:19:00,
2013-01-07 16:24:00,61.4,38.7,31.31,WSW,252,0.0,5.0,43,0.00,,,0.00,VWS V14.01,2013-01-08 00:24:00,
2013-01-07 16:29:00,61.4,39.3,31.31,WSW,252,0.0,5.0,44,0.00,,,0.00,VWS V14.01,2013-01-08 00:29:00,
2013-01-07 16:34:00,61.1,39.0,31.31,WSW,252,1.0,3.0,44,0.00,,,0.00,VWS V14.01,2013-01-08 00:34:00,
2013-01-07 16:39:00,60.3,38.9,31.31,WSW,252,1.0,5.0,45,0.00,,,0.00,VWS V14.01,2013-01-08 00:39:00,
2013-01-07 16:44:00,60.0,38.6,31.31,WSW,252,2.0,5.0,45,0.00,,,0.00,VWS V14.01,2013-01-08 00:44:00,
2013-01-07 16:49:00,59.6,38.2,31.31,WSW,252,0.0,5.0,45,0.00,,,0.00,VWS V14.01,2013-01-08 00:49:00,
2013-01-07 16:54:00,59.0,37.7,31.31,WSW,252,0.0,5.0,45,0.00,,,0.00,VWS V14.01,2013-01-08 00:54:00,
2013-01-07 16:59:00,58.9,38.2,31.31,WSW,252,0.0,5.0,46,0.00,,,0.00,VWS V14.01,2013-01-08 00:59:00,
2013-01-07 17:04:00,58.6,37.9,31.31,WSW,252,0.0,2.0,46,0.00,,,0.00,VWS V14.01,2013-01-08 01:04:00,
2013-01-07 17:09:00,58.3,37.6,31.31,WSW,252,1.0,2.0,46,0.00,,,0.00,VWS V14.01,2013-01-08 01:09:00,
2013-01-07 17:14:00,58.2,37.5,31.31,WSW,252,0.0,2.0,46,0.00,,,0.00,VWS V14.01,2013-01-08 01:14:00,
2013-01-07 17:19:00,57.8,37.2,31.31,WSW,252,0.0,2.0,46,0.00,,,0.00,VWS V14.01,2013-01-08 01:19:00,
2013-01-07 17:24:00,57.5,38.0,31.31,WSW,252,0.0,2.0,48,0.00,,,0.00,VWS V14.01,2013-01-08 01:24:00,
2013-01-07 17:29:00,57.2,38.2,31.31,WSW,252,0.0,2.0,49,0.00,,,0.00,VWS V14.01,2013-01-08 01:29:00,
2013-01-07 17:30:00,57.1,38.1,31.31,WSW,252,0.0,2.0,49,0.00,,,0.00,VWS V14.01,2013-01-08 01:30:00,
2013-01-07 17:34:00,56.6,39.2,31.31,WSW,252,0.0,0.0,52,0.00,,,0.00,VWS V14.01,2013-01-08 01:34:00,
2013-01-07 17:39:00,56.1,39.2,31.31,WSW,252,0.0,0.0,53,0.00,,,0.00,VWS V14.01,2013-01-08 01:39:00,
2013-01-07 17:44:00,55.5,38.7,31.31,WSW,252,0.0,0.0,53,0.00,,,0.00,VWS V14.01,2013-01-08 01:44:00,
2013-01-07 17:49:00,55.1,38.8,31.31,WSW,252,0.0,0.0,54,0.00,,,0.00,VWS V14.01,2013-01-08 01:49:00,
2013-01-07 17:54:00,54.8,39.0,31.31,WSW,252,0.0,0.0,55,0.00,,,0.00,VWS V14.01,2013-01-08 01:54:00,
2013-01-07 17:59:00,54.6,40.1,31.31,WSW,252,0.0,1.0,58,0.00,,,0.00,VWS V14.01,2013-01-08 01:59:00,
2013-01-07 18:04:00,54.5,40.5,31.31,WSW,252,0.0,1.0,59,0.00,,,0.00,VWS V14.01,2013-01-08 02:04:00,
2013-01-07 18:09:00,54.4,40.4,31.31,WSW,252,0.0,1.0,59,0.00,,,0.00,VWS V14.01,2013-01-08 02:09:00,
2013-01-07 18:14:00,54.2,40.2,31.31,WSW,252,0.0,1.0,59,0.00,,,0.00,VWS V14.01,2013-01-08 02:14:00,
2013-01-07 18:19:00,54.0,40.4,31.31,WSW,252,0.0,3.0,60,0.00,,,0.00,VWS V14.01,2013-01-08 02:19:00,
2013-01-07 18:24:00,53.9,40.3,31.31,WSW,252,0.0,3.0,60,0.00,,,0.00,VWS V14.01,2013-01-08 02:24:00,
2013-01-07 18:29:00,53.7,40.2,31.31,WSW,252,0.0,3.0,60,0.00,,,0.00,VWS V14.01,2013-01-08 02:29:00,
2013-01-07 18:30:00,53.7,40.2,31.31,WSW,252,0.0,3.0,60,0.00,,,0.00,VWS V14.01,2013-01-08 02:30:00,
2013-01-07 18:34:00,53.6,40.1,31.31,WSW,252,0.0,0.0,60,0.00,,,0.00,VWS V14.01,2013-01-08 02:34:00,
2013-01-07 18:39:00,53.4,40.3,31.31,WSW,252,0.0,0.0,61,0.00,,,0.00,VWS V14.01,2013-01-08 02:39:00,
2013-01-07 18:44:00,53.3,40.2,31.31,WSW,252,0.0,1.0,61,0.00,,,0.00,VWS V14.01,2013-01-08 02:44:00,
2013-01-07 18:49:00,53.2,40.1,31.31,WSW,252,0.0,1.0,61,0.00,,,0.00,VWS V14.01,2013-01-08 02:49:00,
2013-01-07 18:54:00,53.1,40.0,31.31,WSW,252,0.0,1.0,61,0.00,,,0.00,VWS V14.01,2013-01-08 02:54:00,
2013-01-07 18:59:00,52.9,39.8,31.31,WSW,252,0.0,2.0,61,0.00,,,0.00,VWS V14.01,2013-01-08 02:59:00,
2013-01-07 19:00:00,52.9,39.8,31.31,WSW,252,0.0,2.0,61,0.00,,,0.00,VWS V14.01,2013-01-08 03:00:00,
2013-01-07 19:04:00,52.7,39.6,31.31,WSW,252,0.0,0.0,61,0.00,,,0.00,VWS V14.01,2013-01-08 03:04:00,
2013-01-07 19:09:00,52.5,39.9,31.31,WSW,252,0.0,1.0,62,0.00,,,0.00,VWS V14.01,2013-01-08 03:09:00,
2013-01-07 19:14:00,52.2,39.6,31.31,WSW,252,0.0,1.0,62,0.00,,,0.00,VWS V14.01,2013-01-08 03:14:00,
2013-01-07 19:19:00,51.9,39.3,31.31,WSW,252,0.0,1.0,62,0.00,,,0.00,VWS V14.01,2013-01-08 03:19:00,
2013-01-07 19:24:00,51.6,39.4,31.31,WSW,252,1.0,2.0,63,0.00,,,0.00,VWS V14.01,2013-01-08 03:24:00,
2013-01-07 19:29:00,51.4,39.2,31.31,WSW,252,1.0,2.0,63,0.00,,,0.00,VWS V14.01,2013-01-08 03:29:00,
2013-01-07 19:30:00,51.3,39.2,31.31,WSW,252,0.0,2.0,63,0.00,,,0.00,VWS V14.01,2013-01-08 03:30:00,
2013-01-07 19:34:00,51.2,39.0,31.31,WSW,252,0.0,2.0,63,0.00,,,0.00,VWS V14.01,2013-01-08 03:34:00,
2013-01-07 19:39:00,51.0,38.9,31.31,WSW,252,0.0,2.0,63,0.00,,,0.00,VWS V14.01,2013-01-08 03:39:00,
2013-01-07 19:44:00,51.1,39.0,31.31,North,5,1.0,3.0,63,0.00,,,0.00,VWS V14.01,2013-01-08 03:44:00,
2013-01-07 19:49:00,51.1,39.0,31.31,North,5,1.0,3.0,63,0.00,,,0.00,VWS V14.01,2013-01-08 03:49:00,
2013-01-07 19:54:00,51.0,38.9,31.31,North,5,0.0,3.0,63,0.00,,,0.00,VWS V14.01,2013-01-08 03:54:00,
2013-01-07 19:58:00,50.8,38.7,31.31,North,5,0.0,3.0,63,0.00,,,0.00,VWS V14.01,2013-01-08 03:58:00,
2013-01-07 20:00:00,50.8,38.7,31.31,North,5,0.0,3.0,63,0.00,,,0.00,VWS V14.01,2013-01-08 04:00:00,
2013-01-07 20:03:00,50.6,38.5,31.31,North,5,0.0,1.0,63,0.00,,,0.00,VWS V14.01,2013-01-08 04:03:00,
2013-01-07 20:08:00,50.3,38.2,31.31,North,5,0.0,1.0,63,0.00,,,0.00,VWS V14.01,2013-01-08 04:08:00,
2013-01-07 20:13:00,50.0,38.3,31.31,North,5,0.0,1.0,64,0.00,,,0.00,VWS V14.01,2013-01-08 04:13:00,
2013-01-07 20:18:00,49.9,38.2,31.31,North,5,0.0,2.0,64,0.00,,,0.00,VWS V14.01,2013-01-08 04:18:00,
2013-01-07 20:23:00,49.8,38.1,31.31,North,5,0.0,2.0,64,0.00,,,0.00,VWS V14.01,2013-01-08 04:23:00,
2013-01-07 20:28:00,49.6,37.9,31.31,North,9,0.0,2.0,64,0.00,,,0.00,VWS V14.01,2013-01-08 04:28:00,
2013-01-07 20:30:00,49.6,37.5,31.31,North,9,1.0,2.0,63,0.00,,,0.00,VWS V14.01,2013-01-08 04:30:00,
2013-01-07 20:33:00,49.5,37.4,31.31,North,9,0.0,3.0,63,0.00,,,0.00,VWS V14.01,2013-01-08 04:33:00,
2013-01-07 20:38:00,49.5,37.4,31.31,North,11,0.0,3.0,63,0.00,,,0.00,VWS V14.01,2013-01-08 04:38:00,
2013-01-07 20:43:00,49.5,37.8,31.31,North,11,1.0,3.0,64,0.00,,,0.00,VWS V14.01,2013-01-08 04:43:00,
2013-01-07 20:48:00,49.4,37.3,31.31,NE,53,0.0,3.0,63,0.00,,,0.00,VWS V14.01,2013-01-08 04:48:00,
2013-01-07 20:53:00,49.2,37.2,31.31,NE,53,0.0,3.0,63,0.00,,,0.00,VWS V14.01,2013-01-08 04:53:00,
2013-01-07 20:58:00,49.0,37.4,31.31,NE,53,0.0,3.0,64,0.00,,,0.00,VWS V14.01,2013-01-08 04:58:00,
2013-01-07 21:00:00,48.9,37.3,31.31,NE,53,0.0,0.0,64,0.00,,,0.00,VWS V14.01,2013-01-08 05:00:00,
2013-01-07 21:01:00,48.8,37.2,31.31,NE,53,0.0,0.0,64,0.00,,,0.00,VWS V14.01,2013-01-08 05:01:00,
2013-01-07 21:06:00,48.6,37.0,31.31,NE,53,0.0,1.0,64,0.00,,,0.00,VWS V14.01,2013-01-08 05:06:00,
2013-01-07 21:11:00,48.3,36.7,31.31,NE,53,0.0,1.0,64,0.00,,,0.00,VWS V14.01,2013-01-08 05:11:00,
2013-01-07 21:16:00,48.2,36.6,31.31,NE,53,1.0,2.0,64,0.00,,,0.00,VWS V14.01,2013-01-08 05:16:00,
2013-01-07 21:21:00,48.0,36.4,31.31,NE,53,0.0,3.0,64,0.00,,,0.00,VWS V14.01,2013-01-08 05:21:00,
2013-01-07 21:26:00,47.8,36.2,31.31,NE,53,0.0,3.0,64,0.00,,,0.00,VWS V14.01,2013-01-08 05:26:00,
2013-01-07 21:30:00,47.6,36.0,31.31,NE,53,0.0,0.0,64,0.00,,,0.00,VWS V14.01,2013-01-08 05:30:00,
2013-01-07 21:35:00,47.4,35.8,31.31,NE,53,0.0,0.0,64,0.00,,,0.00,VWS V14.01,2013-01-08 05:35:00,
2013-01-07 21:40:00,47.2,35.7,31.31,NE,53,0.0,0.0,64,0.00,,,0.00,VWS V14.01,2013-01-08 05:40:00,
2013-01-07 21:45:00,47.0,35.5,31.31,NE,53,0.0,0.0,64,0.00,,,0.00,VWS V14.01,2013-01-08 05:45:00,
2013-01-07 21:50:00,46.9,35.4,31.31,NE,53,0.0,0.0,64,0.00,,,0.00,VWS V14.01,2013-01-08 05:50:00,
2013-01-07 21:55:00,46.9,35.4,31.31,NE,53,0.0,0.0,64,0.00,,,0.00,VWS V14.01,2013-01-08 05:55:00,
2013-01-07 22:00:00,47.1,35.6,31.31,NE,53,0.0,0.0,64,0.00,,,0.00,VWS V14.01,2013-01-08 06:00:00,
2013-01-07 22:05:00,47.1,35.6,31.31,NE,53,0.0,0.0,64,0.00,,,0.00,VWS V14.01,2013-01-08 06:05:00,
2013-01-07 22:10:00,47.4,35.5,31.31,NE,53,0.0,0.0,63,0.00,,,0.00,VWS V14.01,2013-01-08 06:10:00,
2013-01-07 22:15:00,47.6,35.6,31.31,NE,53,0.0,0.0,63,0.00,,,0.00,VWS V14.01,2013-01-08 06:15:00,
2013-01-07 22:20:00,47.8,35.4,31.31,NE,53,0.0,0.0,62,0.00,,,0.00,VWS V14.01,2013-01-08 06:20:00,
2013-01-07 22:25:00,47.9,35.5,31.31,NE,53,0.0,0.0,62,0.00,,,0.00,VWS V14.01,2013-01-08 06:25:00,
2013-01-07 22:30:00,47.9,35.5,31.31,NE,53,0.0,0.0,62,0.00,,,0.00,VWS V14.01,2013-01-08 06:30:00,
2013-01-07 22:35:00,48.1,35.7,31.31,NE,53,0.0,0.0,62,0.00,,,0.00,VWS V14.01,2013-01-08 06:35:00,
2013-01-07 22:40:00,48.1,35.3,31.31,NE,53,0.0,0.0,61,0.00,,,0.00,VWS V14.01,2013-01-08 06:40:00,
2013-01-07 22:45:00,48.0,35.2,31.31,NE,53,0.0,0.0,61,0.00,,,0.00,VWS V14.01,2013-01-08 06:45:00,
2013-01-07 22:50:00,47.8,35.0,31.31,NE,53,0.0,0.0,61,0.00,,,0.00,VWS V14.01,2013-01-08 06:50:00,
2013-01-07 22:55:00,47.6,34.8,31.31,NE,53,0.0,0.0,61,0.00,,,0.00,VWS V14.01,2013-01-08 06:55:00,
2013-01-07 23:00:00,47.2,34.9,31.31,NE,53,0.0,0.0,62,0.00,,,0.00,VWS V14.01,2013-01-08 07:00:00,
2013-01-07 23:05:00,47.0,34.7,31.31,NE,53,0.0,0.0,62,0.00,,,0.00,VWS V14.01,2013-01-08 07:05:00,
2013-01-07 23:10:00,46.8,34.5,31.31,NE,53,0.0,0.0,62,0.00,,,0.00,VWS V14.01,2013-01-08 07:10:00,
2013-01-07 23:15:00,46.9,34.6,31.31,NE,53,0.0,0.0,62,0.00,,,0.00,VWS V14.01,2013-01-08 07:15:00,
2013-01-07 23:20:00,47.1,34.4,31.31,NE,53,0.0,0.0,61,0.00,,,0.00,VWS V14.01,2013-01-08 07:20:00,
2013-01-07 23:25:00,47.7,34.1,31.31,NE,47,0.0,3.0,59,0.00,,,0.00,VWS V14.01,2013-01-08 07:25:00,
2013-01-07 23:30:00,48.2,34.6,31.31,NE,47,0.0,0.0,59,0.00,,,0.00,VWS V14.01,2013-01-08 07:30:00,
2013-01-07 23:35:00,48.4,34.3,31.31,NE,47,1.0,2.0,58,0.00,,,0.00,VWS V14.01,2013-01-08 07:35:00,
2013-01-07 23:40:00,48.3,34.2,31.31,NE,47,0.0,2.0,58,0.00,,,0.00,VWS V14.01,2013-01-08 07:40:00,
2013-01-07 23:45:00,48.3,34.2,31.31,NE,47,0.0,2.0,58,0.00,,,0.00,VWS V14.01,2013-01-08 07:45:00,
2013-01-07 23:50:00,48.4,34.3,31.31,NE,47,0.0,2.0,58,0.00,,,0.00,VWS V14.01,2013-01-08 07:50:00,
2013-01-07 23:55:00,48.5,34.0,31.31,NE,47,0.0,2.0,57,0.00,,,0.00,VWS V14.01,2013-01-08 07:55:00,